sat.trackr.live / text

‹ back to catalog

STARLINK-31954

NORAD 60102 · 2024-117M

PAYLOAD ACTIVE UNKNOWN

§ Identity

Operator
Country
US
Launch date
2024-06-23
Launch site
AFETR
Launch vehicle
Mass (kg)
RCS (m²)

Purposes: comms

External: N2YO · Heavens-Above · Gunter

§ Orbital elements

Epoch: 2026-05-25T02:34:34.768704Z

Period
94.11 min
Inclination
53.1619°
Eccentricity
0.0001355
Mean motion
15.30192831 rev/d
Perigee alt
474.3 km
Apogee alt
476.2 km
Semi-major
6,853.4 km
B*
5.0539e-5
RAAN
42.3650°
Arg perigee
86.4328°
Mean anomaly
273.6827°
Rev number
10,858

§ Raw data

STARLINK-319541 60102U 24117M   26145.10734686  .00001138  00000+0  50539-4 0  99952 60102  53.1619  42.3650 0001355  86.4328 273.6827 15.30192831108581

JSON: /api/v1/satellites/60102 · /tle

For live sub-satellite position, see the globe view (requires WebGL).

§ Visibility from observer

Set your observer location to see the next 7 days of passes ≥ 10°. The values pass through the URL so the page stays shareable.

No JS? Fill the form by hand. The geolocation button needs JavaScript.